Regional Weather Roundup
Issued by NWS Green Bay, WI

Home | Current Version | Previous Version | Text Only | Print | Product List | Glossary On
Versions: 1 2 3 4 5 6 7 8 9 10 11 12 13 14 15 16 17 18 19 20 21 22 23 24 25 26 27 28 29 30 31 32 33 34 35 36 37 38 39 40 41 42 43 44 45 46 47 48 49 50
000
ASUS43 KGRB 181759
RWRGRB

NORTH-CENTRAL AND NORTHEAST WISCONSIN REGIONAL WEATHER ROUNDUP
NATIONAL WEATHER SERVICE GREEN BAY WI
100 PM CDT FRI APR 18 2014

WIZ005-009-010>012-018-019-181900-
NORTH CENTRAL WISCONSIN

CITY           SKY/WX    TMP DP  RH WIND       PRES   REMARKS
IRONWOOD       MOSUNNY   36  21  55 W3        30.36S
MANITOWISH WTR NOT AVBL
ARBOR VITAE    NOT AVBL
EAGLE RIVER    NOT AVBL
LAND O LAKES   NOT AVBL
RHINELANDER    SUNNY     37  21  52 N9        30.36F
PHILLIPS       NOT AVBL
ANTIGO         NOT AVBL
TOMAHAWK       NOT AVBL
MERRILL        NOT AVBL
$$

WIZ013-073-181900-
NORTHEAST WISCONSIN

CITY           SKY/WX    TMP DP  RH WIND       PRES   REMARKS
IRON MOUNTAIN  PTSUNNY   38  23  55 NW13      30.35F
MARINETTE      PTSUNNY   43  27  52 N5        30.37S
$$

WIZ017-030-035>037-045-181900-
CENTRAL WISCONSIN

CITY           SKY/WX    TMP DP  RH WIND       PRES   REMARKS
MEDFORD        NOT AVBL
WAUSAU         SUNNY     42  21  43 NW8       30.34F
MOSINEE        SUNNY     43  25  49 N12G25    30.37S
MARSHFIELD     SUNNY     45  26  47 CALM      30.35F
WISC RAPIDS    SUNNY     49  21  33 N10       30.37S
STEVENS POINT  NOT AVBL
WAUPACA        NOT AVBL
SHAWANO        NOT AVBL
CLINTONVILLE   NOT AVBL
$$

WIZ038-039-048-051-181900-
FOX VALLEY

CITY           SKY/WX    TMP DP  RH WIND       PRES   REMARKS
NWS GREEN BAY  NOT AVBL
APPLETON       MOSUNNY   45  25  45 VRB5      30.36F
OSHKOSH        SUNNY     43  28  55 E9        30.36F
FOND DU LAC    SUNNY     44  30  57 NE7       30.37F
$$

WIZ022-050-052-181900-
EAST CENTRAL WISCONSIN

CITY           SKY/WX    TMP DP  RH WIND       PRES   REMARKS
STURGEON BAY   MOSUNNY   39  25  56 NW5       30.39S
MANITOWOC      NOT AVBL
SHEBOYGAN      MOSUNNY   44  33  65 NE8       30.36F
$$

LMZ563-521-522-541>543-181900-
LAKESHORE

STATION/POSITION TIME  TEMP    WIND        PRES    VSBY  WAVE
                       AIR SEA DIR/SP/G                  HT/PER
                 (UTC) (F)     (DEG/KT/KT) (MB)    (MI)  (FT/S)
SHEBOYGAN LKSHOR 1700   36      60/ 11/ 12 1029.5F
KEWAUNEE LKSHORE 1700   40      70/  6/  9 1029.4R
NORTHPORT PIER   1700   36     330/  3/  6 1028.8R
SISTER BAY LKSHO 1700          270/  5/  5   N/A
MENOMINEE LKSHOR 1700   35     140/  8/ 10 1029.2S
$$



USA.gov is the U.S. government's official web portal to all federal, state and local government web resources and services.